This is the latest recevied weather packets stored in our database for station/object WL7CLI. If no packets are shown the sender has not sent any weather packets the latest 10 day(s).
| Time | Temp. | Humidity | Pressure | Rain* | Wind** | Luminosity | Snow |
|---|---|---|---|---|---|---|---|
| 1788231641 | 27.78° C | 82% | 1011.6 hPa | 0 mm | - | - | - |
| 1788231634 | 27.78° C | 83% | 1011.6 hPa | 0 mm | - | - | - |
| 1788231484 | 27.78° C | 83% | 1013.7 hPa | 0 mm | - | - | - |
| 1788231399 | 27.78° C | 82% | 1011.6 hPa | 0 mm | - | - | - |
| 1788231307 | 27.78° C | 82% | 1011.6 hPa | 0 mm | - | - | - |
| 1788230433 | 27.78° C | 82% | 1011.6 hPa | 0 mm | - | - | - |
| 1788230106 | 28.33° C | 81% | 1011.6 hPa | 0 mm | - | - | - |
| 1788229853 | 28.89° C | 78% | 1011.4 hPa | 0 mm | - | - | - |
| 1788229684 | 28.33° C | 80% | 1013.5 hPa | 0 mm | - | - | - |
| 1788229233 | 28.89° C | 79% | 1011.4 hPa | 0 mm | - | - | - |
| 1788229139 | 28.89° C | 78% | 1011.4 hPa | 0 mm | - | - | - |
| 1788228904 | 28.89° C | 78% | 1011.4 hPa | 0 mm | - | - | - |
| 1788228543 | 29.44° C | 77% | 1011.3 hPa | 0 mm | - | - | - |
| 1788228032 | 28.89° C | 76% | 1011.3 hPa | 0 mm | - | - | - |
| 1788227885 | 29.44° C | 76% | 1013.3 hPa | 0 mm | - | - | - |
| 1788227874 | 29.44° C | 77% | 1011.3 hPa | 0 mm | - | - | - |
| 1788227705 | 29.44° C | 77% | 1011.3 hPa | 0 mm | - | - | - |
| 1788226844 | 29.44° C | 77% | 1011.2 hPa | 0 mm | - | - | - |
| 1788226688 | 30° C | 76% | 1011.1 hPa | 0 mm | - | - | - |
| 1788226636 | 30° C | 76% | 1011.1 hPa | 0 mm | - | - | - |
| 1788226505 | 30° C | 76% | 1011.1 hPa | 0 mm | - | - | - |
| 1788226085 | 30° C | 76% | 1013.1 hPa | 0 mm | - | - | - |
| 1788225633 | 30° C | 75% | 1011 hPa | 0 mm | - | - | - |
| 1788225572 | 30° C | 75% | 1010.8 hPa | 0 mm | - | - | - |
| 1788225306 | 30° C | 75% | 1010.8 hPa | 0 mm | - | - | - |
* Rain latest hour (hover to see other rain measurements)
** Current wind speed in m/s (hover to see current wind gust speed)